Tracking 29892 objects as of 21-Nov-2024
HD Live streaming from Space Station
objects crossing your sky now

COSMOS 1561

Track COSMOS 1561 now!
10-day predictions
COSMOS 1561 is classified as:


NORAD ID: 15000
Int'l Code: 1984-052C
Perigee: 1,468.4 km
Apogee: 1,491.8 km
Inclination: 74.0 °
Period: 115.4 minutes
Semi major axis: 7851 km
RCS: 0.6982 m2 (medium)
Launch date: May 28, 1984
Source: Commonwealth of Independent States (former USSR) (CIS)
Launch site: PLESETSK MISSILE AND SPACE COMPLEX (PKMTR)
Your satellite tracking list
Your tracking list is empty




NASA's NSSDC Master Catalog

Two Line Element Set (TLE):
1 15000U 84052C   24325.31225442  .00000000  00000-0  10498-3 0  9999
2 15000  74.0132  71.5076 0014890  28.7850 359.7773 12.47978969844147
Source of the keplerian elements: AFSPC